Weather in Semenivka

Ukraine / Kharkiv Region     49°04′20″N   35°19′33″E
temp.,
°C
wind,
m/s
gust,
m/s
humid.,
%
clouds,
%
prec.,
mm/h
press.,
hPa
HPBL,
m
8 march, mon
mon823:000wsw81565100 0.0 1014597
02:00−1wsw7146675 0.0 1013588
05:00−1wsw71374100 0.0 1011482
08:000wsw7117094 0.0 1011685
11:00+3w8116285 0.0 10111256
14:00+3w7106892 0.0 10101103
17:00+1w61073100 0.0 1011798
20:00−1w3892100 0.1 1012355
9 march, tue
tue923:00−2w368087 0.0 1013186
02:00−2w598151 0.0 1013563
05:00−2nw697994 0.1 1014819
08:00−3nw796996 0.1 1016837
11:00−1nw685059 0.0 10171380
14:00−1nw684980 0.0 10191484
17:00−3nnw5757100 0.0 10201226
20:00−5nnw466874 0.0 1023802
10 march, wed
wed1023:00−5nnw57670 0.0 1024740
02:00−6nnw46620 0.0 1025701
05:00−6nnw35630 0.0 1026641
08:00−6n34580 0.0 1027617
11:00−3nne33403 0.0 1027914
14:00−2n223451 0.0 10271149
17:00−2nne2240100 0.0 1025885
20:00−3ne234973 0.0 102665
11 march, thu
thu1123:00−4ne24540 0.0 1027188
02:00−4ne22550 0.0 102756
05:00−5ene22590 0.0 102867
08:00−4e34540 0.0 1029427
11:00−2e324549 0.0 10301070
14:00−2ene324774 0.0 10291218
17:00−3e345290 0.0 1029746
20:00−4ese464853 0.0 1030452
12 march, fri
fri1223:00−5se57323 0.0 1031514
02:00−5sse47321 0.0 1030450
05:00−6sse583411 0.0 1030433
08:00−5sse693655 0.0 1030516
11:00−2s7103296 0.0 1029774
14:000s8113298 0.0 10271006
17:00−1s71141100 0.0 1025926
20:00−2s81348100 0.0 1026808